スコッティ彗星

416P/Scotti (2013)

English version
Home page
Updated on February 17, 2021

---------------------------------------------------------------------

・ プロフィール

符号 416P/2013 A2
発見日 2013年1月6日
発見光度 19.5等
発見者 J. V. Scotti (Spacewatch, Kitt Peak)

・ 写真集

・ 軌道要素

Epoch 2013 Jan. 28.0 TT = JDT 2456320.5                                         
T 2013 Feb. 7.28004 TT                                  Rudenko                 
q   2.1773745            (2000.0)            P               Q                  
n   0.12313797     Peri.  134.49923     -0.64744077     -0.76210389             
a   4.0013640      Node   355.84299     +0.68151229     -0.57645687             
e   0.4558419      Incl.    3.36610     +0.34111793     -0.29477982             
P   8.00                                                                        
From 97 observations 2013 Jan. 6-2021 Jan. 15, mean residual 0".5.              

・ 光度変化

        m1 = 12.5 + 5 logΔ + 20.0 log r

---------------------------------------------------------------------

軌道要素はM.P.E.C. 2021-B21に掲載されたものです。
光度グラフはComet for Windowsで作成したものです。

---------------------------------------------------------------------

Copyright(C) Seiichi Yoshida (comet@aerith.net). All rights reserved.